Simultaneous Nadir Overpasses (SNOs) Predictions

Prediction of SNOs between NOAA-20 and AQUA Satellite Orbit:

Table of predicted SNOs for the next 14.0 days since TLE Epoch: 12/31/2022
Index Date (NOAA-20) Time (NOAA-20) Lat,Lon (NOAA-20) SZA (NOAA-20 ) Date (AQUA) Time (AQUA) Lat,Lon (AQUA) SZA (AQUA ) Distance(km) Time Diff (sec)
1 01/01/2023 00:30:59 79.63, 70.18 114.96 01/01/2023 00:31:17 79.64, 70.27 114.93 1.91 18
2 01/01/2023 01:21:38 -79.83,-120.74 65.38 01/01/2023 01:20:38 -79.83,-120.59 65.36 3.17 60
3 01/03/2023 15:57:09 -79.69, 19.16 65.32 01/03/2023 15:57:10 -79.70, 19.25 65.34 1.77 1
4 01/06/2023 06:32:41 -79.52, 158.79 65.25 01/06/2023 06:33:42 -79.52, 158.88 65.31 1.90 61
5 01/06/2023 07:23:18 79.76, -31.78 114.34 01/06/2023 07:23:00 79.77, -31.64 114.33 2.95 18
6 01/08/2023 21:58:47 79.68, 108.61 114.20 01/08/2023 21:59:29 79.67, 108.54 114.19 1.47 42
7 01/08/2023 22:49:26 -79.87, -82.25 66.15 01/08/2023 22:48:50 -79.87, -82.29 66.12 0.82 36
8 01/11/2023 13:24:58 -79.67, 56.97 66.12 01/11/2023 13:25:20 -79.67, 57.10 66.16 2.56 22
9 01/11/2023 14:15:32 79.99,-132.67 113.31 01/11/2023 14:14:36 79.98,-132.81 113.38 2.61 56



Historial Predications of SNOs between NOAA-20 and AQUA
